AWW39GP EGPF-EGFF

Flight info

Callsign AWW39GP
Flight time N/A
Altitude 33000
Route NORBO T256 ROVLA UT256 DCS UN864 SUBUK DCT NOKIN N862 KARNO DCT ALHUP DCT LUCSA N862 WEVBE
Aircraft A320/M-SDE3FGHIRWY/LB1

Departure

Time 2026-05-01 14:49
Airport Glasgow Airport (EGPF)

Arrival

Time N/A
Airport Cardiff International Airport (EGFF)
Time Latitude Longitude Altitude Speed Heading
2026-05-01 14:20 55.86469 -4.43777 28 ft 0 kts 62°
2026-05-01 14:39 55.86468 -4.43778 29 ft 1 kts 62°
2026-05-01 14:40 55.86457 -4.43817 29 ft 4 kts 62°
2026-05-01 14:40 55.86446 -4.43854 29 ft 1 kts 62°
2026-05-01 14:40 55.86435 -4.43890 29 ft 4 kts 58°
2026-05-01 14:40 55.86421 -4.43907 29 ft 4 kts 340°
2026-05-01 14:41 55.86398 -4.43888 29 ft 4 kts 332°
2026-05-01 14:41 55.86383 -4.43873 29 ft 0 kts 332°
2026-05-01 14:43 55.86383 -4.43874 29 ft 0 kts 332°
2026-05-01 14:44 55.86390 -4.43880 29 ft 2 kts 331°
2026-05-01 14:44 55.86424 -4.43914 29 ft 3 kts 331°
2026-05-01 14:44 55.86438 -4.43927 29 ft 2 kts 331°
2026-05-01 14:45 55.86446 -4.43936 29 ft 1 kts 331°
2026-05-01 14:45 55.86470 -4.43959 29 ft 10 kts 331°
2026-05-01 14:45 55.86533 -4.44020 29 ft 9 kts 330°
2026-05-01 14:46 55.86543 -4.44110 29 ft 10 kts 236°
2026-05-01 14:46 55.86420 -4.44338 29 ft 14 kts 226°
2026-05-01 14:46 55.86349 -4.44471 29 ft 16 kts 226°
2026-05-01 14:47 55.86286 -4.44589 29 ft 13 kts 226°
2026-05-01 14:47 55.86258 -4.44720 29 ft 12 kts 303°
2026-05-01 14:47 55.86313 -4.44817 29 ft 11 kts 315°
2026-05-01 14:48 55.86430 -4.44761 29 ft 29 kts 46°
2026-05-01 14:48 55.86753 -4.44157 29 ft 104 kts 46°
2026-05-01 14:48 55.88094 -4.41661 375 ft 174 kts 45°
2026-05-01 14:49 55.89989 -4.38451 1557 ft 202 kts 46°
2026-05-01 14:49 55.92138 -4.34370 2348 ft 250 kts 49°
2026-05-01 14:50 55.94525 -4.31150 3592 ft 273 kts 14°
2026-05-01 14:50 55.98280 -4.33734 5503 ft 273 kts 297°
2026-05-01 14:51 55.98827 -4.36902 5896 ft 268 kts 266°
2026-05-01 14:51 55.97817 -4.43122 6006 ft 261 kts 240°
2026-05-01 14:52 55.96110 -4.48830 6006 ft 260 kts 239°
2026-05-01 14:52 55.95064 -4.51416 6006 ft 257 kts 223°
2026-05-01 14:52 55.92495 -4.55806 6013 ft 257 kts 223°
2026-05-01 14:53 55.91232 -4.58067 6007 ft 258 kts 223°
2026-05-01 14:53 55.89974 -4.60341 6006 ft 257 kts 224°
2026-05-01 14:53 55.88720 -4.62618 6006 ft 257 kts 223°
2026-05-01 14:53 55.87465 -4.64891 6003 ft 257 kts 224°
2026-05-01 14:54 55.86188 -4.67074 6006 ft 256 kts 215°
2026-05-01 14:54 55.84694 -4.68803 6000 ft 256 kts 211°
2026-05-01 14:54 55.83186 -4.70487 5970 ft 256 kts 211°
2026-05-01 14:54 55.81700 -4.72144 5963 ft 255 kts 211°
2026-05-01 14:55 55.80184 -4.73789 5963 ft 255 kts 206°
2026-05-01 14:55 55.78515 -4.74829 5965 ft 254 kts 191°
2026-05-01 14:55 55.76753 -4.75077 5967 ft 255 kts 182°
2026-05-01 14:55 55.74980 -4.75186 5964 ft 255 kts 182°
2026-05-01 14:56 55.73208 -4.75307 5967 ft 255 kts 182°
2026-05-01 14:56 55.71436 -4.75427 5967 ft 255 kts 182°
2026-05-01 14:56 55.69659 -4.75544 5967 ft 255 kts 182°
2026-05-01 14:56 55.67886 -4.75660 5967 ft 255 kts 182°
2026-05-01 14:57 55.66138 -4.75776 5968 ft 254 kts 182°
2026-05-01 14:57 55.62607 -4.76006 5968 ft 254 kts 182°
2026-05-01 14:57 55.60842 -4.75986 5970 ft 254 kts 173°
2026-05-01 14:58 55.59136 -4.75131 5988 ft 259 kts 156°
2026-05-01 14:58 55.57619 -4.73311 6723 ft 266 kts 143°
2026-05-01 14:58 55.56198 -4.71233 7699 ft 266 kts 144°
2026-05-01 14:58 55.54753 -4.69172 8591 ft 269 kts 145°
2026-05-01 14:59 55.53285 -4.67094 9468 ft 273 kts 145°
2026-05-01 14:59 55.51814 -4.65014 10271 ft 277 kts 146°
2026-05-01 14:59 55.50246 -4.62805 10611 ft 300 kts 146°
2026-05-01 14:59 55.48571 -4.60440 11060 ft 315 kts 145°
2026-05-01 15:00 55.45137 -4.55558 12550 ft 323 kts 145°
2026-05-01 15:00 55.43376 -4.53052 13334 ft 327 kts 145°
2026-05-01 15:00 55.41603 -4.50531 14112 ft 330 kts 145°
2026-05-01 15:01 55.39817 -4.47989 14797 ft 333 kts 145°
2026-05-01 15:01 55.38017 -4.45409 15472 ft 336 kts 144°
2026-05-01 15:01 55.37772 -4.45050 15562 ft 336 kts 144°
2026-05-01 15:02 55.35483 -4.41660 16387 ft 341 kts 143°
2026-05-01 15:02 55.33693 -4.38985 17051 ft 344 kts 143°
2026-05-01 15:03 55.31862 -4.36256 17719 ft 347 kts 143°
2026-05-01 15:03 55.30011 -4.33505 18368 ft 350 kts 143°
2026-05-01 15:03 55.28143 -4.30738 18936 ft 353 kts 143°
2026-05-01 15:03 55.26260 -4.27954 19507 ft 355 kts 143°
2026-05-01 15:04 55.24386 -4.25195 20093 ft 358 kts 143°
2026-05-01 15:04 55.22473 -4.22390 20692 ft 360 kts 143°
2026-05-01 15:04 55.20542 -4.19564 21264 ft 363 kts 143°
2026-05-01 15:04 55.18597 -4.16720 21859 ft 365 kts 143°
2026-05-01 15:05 55.16640 -4.13861 22447 ft 368 kts 143°
2026-05-01 15:05 55.14669 -4.10986 23040 ft 371 kts 143°
2026-05-01 15:05 55.12808 -4.07808 23600 ft 376 kts 137°
2026-05-01 15:05 55.11004 -4.04475 24065 ft 379 kts 137°
2026-05-01 15:06 55.09221 -4.01181 24509 ft 382 kts 137°
2026-05-01 15:06 55.07391 -3.97817 24939 ft 384 kts 137°
2026-05-01 15:06 55.05538 -3.94423 25354 ft 387 kts 137°
2026-05-01 15:06 55.03677 -3.91013 25766 ft 389 kts 137°
2026-05-01 15:07 55.01802 -3.87581 26165 ft 392 kts 137°
2026-05-01 15:07 54.99915 -3.84135 26548 ft 395 kts 137°
2026-05-01 15:07 54.98010 -3.80667 26909 ft 398 kts 137°
2026-05-01 15:07 54.96084 -3.77172 27236 ft 402 kts 137°
2026-05-01 15:08 54.94145 -3.73649 27591 ft 405 kts 137°
2026-05-01 15:08 54.92195 -3.70102 27992 ft 407 kts 137°
2026-05-01 15:08 54.90235 -3.66534 28393 ft 409 kts 137°
2026-05-01 15:08 54.88285 -3.62996 28775 ft 412 kts 137°
2026-05-01 15:09 54.86296 -3.59403 29147 ft 414 kts 137°
2026-05-01 15:09 54.84296 -3.55792 29499 ft 416 kts 137°
2026-05-01 15:09 54.82280 -3.52161 29837 ft 418 kts 137°
2026-05-01 15:09 54.80253 -3.48521 30166 ft 421 kts 137°
2026-05-01 15:10 54.78215 -3.44871 30446 ft 423 kts 137°
2026-05-01 15:10 54.73881 -3.38004 30979 ft 422 kts 149°
2026-05-01 15:10 54.71367 -3.35554 31238 ft 420 kts 158°
2026-05-01 15:11 54.68616 -3.33868 31489 ft 420 kts 167°
2026-05-01 15:11 54.62845 -3.32574 32126 ft 418 kts 176°
2026-05-01 15:11 54.60067 -3.32140 32456 ft 417 kts 176°
2026-05-01 15:12 54.57175 -3.31682 32798 ft 416 kts 176°
2026-05-01 15:12 54.51415 -3.30766 33142 ft 406 kts 176°
2026-05-01 15:12 54.48628 -3.30319 33145 ft 398 kts 176°
2026-05-01 15:14 54.35083 -3.27708 33132 ft 395 kts 171°
2026-05-01 15:14 54.27090 -3.25155 33145 ft 395 kts 171°
2026-05-01 15:15 54.16338 -3.21761 33144 ft 394 kts 171°
2026-05-01 15:16 54.05560 -3.18356 33141 ft 394 kts 171°
2026-05-01 15:18 53.92281 -3.14194 33124 ft 394 kts 171°
2026-05-01 15:19 53.81466 -3.10813 33145 ft 396 kts 171°
2026-05-01 15:19 53.73603 -3.08383 33151 ft 396 kts 171°
2026-05-01 15:20 53.66020 -3.06041 33148 ft 396 kts 171°
2026-05-01 15:21 53.60602 -3.04369 33150 ft 396 kts 171°
2026-05-01 15:21 53.55188 -3.02709 33154 ft 396 kts 171°
2026-05-01 15:22 53.47093 -3.00225 33158 ft 396 kts 171°
2026-05-01 15:22 53.41683 -2.98579 33162 ft 395 kts 171°
2026-05-01 15:23 53.36281 -2.96936 33159 ft 395 kts 171°
2026-05-01 15:23 53.30880 -2.95294 33158 ft 395 kts 171°
2026-05-01 15:24 53.25474 -2.93647 33157 ft 395 kts 171°
2026-05-01 15:24 53.20071 -2.92011 33156 ft 394 kts 171°
2026-05-01 15:25 53.14806 -2.90435 33160 ft 394 kts 171°
2026-05-01 15:25 53.09411 -2.88825 33161 ft 393 kts 172°
2026-05-01 15:26 53.05002 -2.88496 33157 ft 391 kts 184°
2026-05-01 15:26 52.99532 -2.88972 33163 ft 401 kts 184°
2026-05-01 15:27 52.93868 -2.89459 32900 ft 409 kts 184°
2026-05-01 15:27 52.91166 -2.89688 32210 ft 403 kts 183°
2026-05-01 15:28 52.85688 -2.90713 30362 ft 389 kts 188°
2026-05-01 15:28 52.83031 -2.91338 29408 ft 382 kts 188°
2026-05-01 15:28 52.80428 -2.91949 28993 ft 374 kts 188°
2026-05-01 15:29 52.75356 -2.93142 28125 ft 363 kts 188°
2026-05-01 15:29 52.72870 -2.93726 27688 ft 358 kts 188°
2026-05-01 15:29 52.68006 -2.94372 26826 ft 350 kts 183°
2026-05-01 15:30 52.63181 -2.94771 25964 ft 344 kts 183°
2026-05-01 15:31 52.53750 -2.95576 24143 ft 336 kts 183°
2026-05-01 15:31 52.49110 -2.95949 23162 ft 332 kts 183°
2026-05-01 15:32 52.44566 -2.96318 22266 ft 326 kts 183°
2026-05-01 15:32 52.40054 -2.96681 21390 ft 324 kts 183°
2026-05-01 15:33 52.33342 -2.97244 20110 ft 320 kts 183°
2026-05-01 15:34 52.26743 -2.97786 18839 ft 317 kts 183°